Location: Robert Brownlee Observatory
(34.2308°N, 117.2089°W)
Time: 05:17:46
(UTC-07:00)

Cosmos 1943 - Visible Passes

Search period start: 21 April 2014 00:00
Search period end: 01 May 2014 00:00
Orbit: 834 x 851 km, 71.0° (Epoch: 20 April)

Date Brightness Start Highest point End Pass type
(mag) Time Alt. Az. Time Alt. Az. Time Alt. Az.
21 Apr 3.1 21:44:07 10° NNW 21:49:47 79° ENE 21:49:47 79° ENE visible
22 Apr 3.1 21:29:19 10° NNW 21:35:00 75° ENE 21:35:44 65° ESE visible
22 Apr 5.8 23:16:31 10° WNW 23:17:35 11° W 23:17:35 11° W visible
23 Apr 3.1 21:14:31 10° NNW 21:20:11 71° ENE 21:21:43 48° SE visible
23 Apr 5.7 23:01:20 10° WNW 23:03:31 12° W 23:03:35 12° W visible
24 Apr 3.2 20:59:43 10° NNW 21:05:23 67° ENE 21:07:46 35° SE visible
24 Apr 5.6 22:46:13 10° WNW 22:48:45 13° W 22:49:38 13° WSW visible
25 Apr 3.2 20:44:55 10° NNW 20:50:34 64° ENE 20:53:52 25° SE visible
25 Apr 5.5 22:31:09 10° WNW 22:33:58 14° W 22:35:44 12° WSW visible
26 Apr 3.3 20:30:08 10° NNW 20:35:45 60° ENE 20:40:03 17° SE visible
26 Apr 5.6 22:16:08 10° WNW 22:19:11 15° W 22:21:55 11° SW visible
27 Apr 3.4 20:15:20 10° NNW 20:20:56 57° ENE 20:26:17 11° SE visible
27 Apr 5.6 22:01:07 10° WNW 22:04:25 16° W 22:07:42 10° SW visible
28 Apr 3.4 20:00:33 10° N 20:06:07 54° ENE 20:11:39 10° SE visible
28 Apr 5.6 21:46:08 10° WNW 21:49:38 17° W 21:53:07 10° SW visible
29 Apr 5.6 21:31:10 10° WNW 21:34:51 18° W 21:38:31 10° SW visible
30 Apr 5.6 21:16:13 10° WNW 21:20:04 19° W 21:23:55 10° SW visible
